Terminal Aerodrome Forecast
Issued by NWS

Home | Current Version | Previous Version | Text Only | Print | Product List | Glossary On
Versions: 1 2 3 4 5 6 7 8 9 10 11 12 13 14 15 16 17
000
FTUS43 KMQT 061136
TAFSAW
TAF
KSAW 061136Z 0612/0712 19010KT P6SM SCT030 BKN100
     FM061500 20014G22KT 6SM -SHRA SCT025 OVC040
     FM061800 22016G24KT 2SM SHRA BR SCT010 OVC020
     FM062200 35014G22KT 2SM SHRA BR OVC003
     FM070200 34013G18KT 5SM -SHRA BR OVC006
     FM070500 33010KT P6SM BKN015=

USA.gov is the U.S. government's official web portal to all federal, state and local government web resources and services.